Regional Weather Roundup
Issued by NWS Kansas City/Pleasant Hill, MO

Home | Current Version | Previous Version | Graphics & Text | Print | Product List | Glossary Off
Versions: 1 2 3 4 5 6 7 8 9 10 11 12 13 14 15 16 17 18 19 20 21 22 23 24 25 26 27 28 29 30 31 32 33 34 35 36 37 38 39 40 41 42 43 44 45 46 47 48 49 50

000
ASUS43 KEAX 281011
RWREAX

WEATHER ROUNDUP FOR EASTERN KANSAS AND NORTHWEST MISSOURI
NATIONAL WEATHER SERVICE KANSAS CITY/PLEASANT HILL MO
500 AM CDT THU MAY 28 2015

KSZ040-057-103>105-MOZ028-029-037-043-281100-
...KANSAS CITY METROPOLITAN AREA...

CITY           SKY/WX    TMP DP  RH WIND       PRES   REMARKS
K.C. INTL      CLOUDY    66  56  70 SE10      30.07S
K.C. DOWNTOWN  CLOUDY    69  54  58 E8        30.06S
LEES SUMMIT    CLOUDY    66  55  67 SE7       30.08S
OLATHE - IXD   CLOUDY    68  56  65 SE8       30.07S
OLATHE - OJC   CLOUDY    67  57  70 SE7       30.06S
LAWRENCE       CLOUDY    66  57  72 SE8       30.05S

$$

MOZ001>008-011>017-020>025-030>033-038>040-044>046-053-054-281100-
...NORTHERN AND CENTRAL MISSOURI...

CITY           SKY/WX    TMP DP  RH WIND       PRES   REMARKS
ST. JOSEPH     CLOUDY    66  55  67 SE7       30.05F
MOSBY          CLOUDY    61  59  94 CALM      30.08R
WARRENSBURG    MOCLDY    63  55  77 CALM      30.08S
WHITEMAN AFB   PTCLDY    63  57  81 E5        30.07F
CLINTON        PTCLDY    64  61  88 E3        30.08S
SEDALIA        PTCLDY    64  57  78 SE8       30.10F
WARSAW         NOT AVBL
CHILLICOTHE      N/A     62  58  86 CALM      30.11S
KIRKSVILLE     PTCLDY    59  56  89 SE6       30.13S

$$

MOZ041-047>049-056>058-063>065-088>090-097-281100-
...EASTERN AND SOUTHERN MISSOURI...

CITY           SKY/WX    TMP DP  RH WIND       PRES   REMARKS
ST. LOUIS INTL MOCLDY    64  57  78 E3        30.13F
SPIRIT OF STL  PTCLDY    57  57 100 CALM      30.12S FOG
COLUMBIA       CLEAR     63  58  83 E7        30.11F
JEFFERSON CITY CLEAR     61  58  90 SE5       30.10S
ROLLA          CLEAR     61  58  90 E8        30.10S
OSAGE BEACH    CLEAR     61  55  82 NE3       30.10S
SPRINGFIELD    CLEAR     67  64  90 SE10      30.09R
BRANSON        FOG       66  66 100 CALM      30.12R VSB 1/4
JOPLIN         CLOUDY    66  63  90 SE6       30.07S
WEST PLAINS    FOG       67  66  97 SE6       30.13S VSB 1/4

$$

IAZ060-094-KSZ022-034>040-054-083-096-NEZ052-066-093-281100-
...KANSAS...SOUTHEAST NEBRASKA AND IOWA...

CITY           SKY/WX    TMP DP  RH WIND       PRES   REMARKS
TOPEKA         CLOUDY    66  58  75 E6        30.04S
MANHATTAN      TSTM      64  64 100 SE6       30.04R
EMPORIA        LGT RAIN  64  62  93 S8        30.07R
CHANUTE        LGT RAIN  68  61  78 W13       30.08R
WICHITA        CLOUDY    64  61  90 SE9       30.01S
OMAHA          CLOUDY    63  54  72 SE5       30.04S
LINCOLN        CLOUDY    65  55  70 S5        30.04R
LAMONI         MOCLDY    65  55  70 SE6       30.10F
DES MOINES     PTCLDY    63  55  75 S6        30.09S

$$



USA.gov is the U.S. government's official web portal to all federal, state and local government web resources and services.